Location: Bonneuil
(46.1010°N, 2.9693°E)
Time: 16:09:51
(UTC+00:00)

Cosmos 2369 - Pass Details

Date: 09 April 2020
Orbit: 840 x 855 km, 71.0° (Epoch: 04 June)

Event Time Altitude Azimuth Distance (km) Brightness Sun altitude
Rises 21:06:44 0° 335° (NNW) 3,404 8.0 -24.9°
Reaches altitude 10° 21:09:13 10° 338° (NNW) 2,466 7.0 -25.2°
Maximum altitude 21:14:51 66° 61° (ENE) 919 3.7 -25.8°
Enters shadow 21:15:12 64° 83° (E) 929 3.7 -25.9°
